| time (UTC) | temp F | wind direction | speed MPH | gust MPH | rain 1hr in | rain 24hr in | rain mn in | humidity % | barometer mb |
| 20260902211531 | 60 | 247 | 0.0 | 0.0 | 0.04 | 0.06 | 0.05 | 89 | 1011.7 |
| 20260902210029 | 59 | 247 | 0.0 | 0.0 | 0.04 | 0.05 | 0.04 | 87 | 1011.7 |
| 20260902204533 | 60 | 247 | 0.0 | 0.0 | 0.03 | 0.04 | 0.03 | 86 | 1011.6 |
| 20260902203031 | 60 | 247 | 0.0 | 0.0 | 0.03 | 0.03 | 0.02 | 84 | 1011.8 |
| 20260902201530 | 61 | 247 | 0.0 | 1.0 | 0.02 | 0.02 | 0.01 | 83 | 1011.8 |
| 20260902200031 | 61 | 247 | 0.0 | 0.0 | 0.01 | 0.01 | 0.01 | 81 | 1011.7 |
| 20260902194529 | 62 | 247 | 0.0 | 1.0 | 0.01 | 0.01 | 0.00 | 78 | 1011.7 |
| 20260902193033 | 63 | 258 | 0.0 | 2.0 | 0.00 | 0.00 | 0.00 | 75 | 1011.8 |
| 20260902191532 | 64 | 294 | 0.0 | 0.0 | 0.00 | 0.00 | 0.00 | 73 | 1011.6 |
| 20260902190030 | 64 | 270 | 0.0 | 0.0 | 0.00 | 0.00 | 0.00 | 70 | 1011.5 |
| 20260902184530 | 64 | 270 | 0.0 | 0.0 | 0.00 | 0.00 | 0.00 | 68 | 1011.4 |
| 20260902181531 | 64 | 270 | 0.0 | 0.0 | 0.00 | 0.00 | 0.00 | 68 | 1011.4 |
| 20260902180030 | 65 | 270 | 0.0 | 0.0 | 0.00 | 0.00 | 0.00 | 66 | 1011.5 |
| 20260902174531 | 68 | 282 | 0.0 | 3.0 | 0.00 | 0.00 | 0.00 | 61 | 1011.4 |
| 20260902173030 | 70 | 336 | 0.0 | 3.0 | 0.00 | 0.00 | 0.00 | 61 | 1011.5 |
| 20260902171530 | 66 | 188 | 0.0 | 1.0 | 0.00 | 0.00 | 0.00 | 69 | 1011.8 |
| 20260902170029 | 63 | 180 | 0.0 | 1.0 | 0.00 | 0.00 | 0.00 | 70 | 1012.1 |
| 20260902164530 | 64 | 180 | 0.0 | 1.0 | 0.00 | 0.00 | 0.00 | 68 | 1012.1 |
| 20260902163029 | 64 | 180 | 0.0 | 2.0 | 0.00 | 0.00 | 0.00 | 72 | 1012.3 |
| 20260902161531 | 62 | 202 | 0.0 | 2.0 | 0.00 | 0.00 | 0.00 | 73 | 1012.5 |
| 20260902160031 | 62 | 187 | 0.0 | 2.0 | 0.00 | 0.00 | 0.00 | 73 | 1012.6 |
| 20260902154529 | 61 | 245 | 0.0 | 2.0 | 0.00 | 0.00 | 0.00 | 75 | 1012.7 |
| 20260902153106 | 60 | 207 | 0.0 | 3.0 | 0.00 | 0.00 | 0.00 | 77 | 1012.9 |
| 20260902151530 | 59 | 247 | 0.0 | 0.0 | 0.00 | 0.00 | 0.00 | 78 | 1013.1 |
| 20260902150031 | 58 | 265 | 0.0 | 1.0 | 0.00 | 0.00 | 0.00 | 80 | 1013.1 |
| 20260902144531 | 58 | 270 | 0.0 | 1.0 | 0.00 | 0.00 | 0.00 | 80 | 1013.3 |
| 20260902143032 | 58 | 274 | 0.0 | 1.0 | 0.00 | 0.00 | 0.00 | 80 | 1013.4 |
| 20260902141531 | 57 | 309 | 0.0 | 1.0 | 0.00 | 0.00 | 0.00 | 81 | 1013.5 |
| 20260902134530 | 57 | 260 | 0.0 | 5.0 | 0.00 | 0.00 | 0.00 | 80 | 1013.4 |
| 20260902133033 | 56 | 261 | 0.0 | 4.0 | 0.00 | 0.00 | 0.00 | 80 | 1013.5 |
| 20260902131533 | 56 | 268 | 0.0 | 6.0 | 0.00 | 0.00 | 0.00 | 80 | 1013.6 |
| 20260902130028 | 56 | 259 | 0.0 | 4.0 | 0.00 | 0.00 | 0.00 | 79 | 1013.7 |
| 20260902124532 | 56 | 257 | 0.0 | 3.0 | 0.00 | 0.00 | 0.00 | 79 | 1013.6 |
| 20260902123145 | 56 | 252 | 0.0 | 4.0 | 0.00 | 0.00 | 0.00 | 79 | 1013.7 |
| 20260902120030 | 56 | 258 | 0.0 | 4.0 | 0.00 | 0.00 | 0.00 | 79 | 1013.7 |
| 20260902114531 | 57 | 252 | 0.0 | 3.0 | 0.00 | 0.00 | 0.00 | 78 | 1014.0 |
| 20260902113103 | 57 | 267 | 0.0 | 6.0 | 0.00 | 0.00 | 0.00 | 77 | 1014.0 |
| 20260902111530 | 57 | 260 | 0.0 | 5.0 | 0.00 | 0.00 | 0.00 | 77 | 1013.9 |
| 20260902110027 | 57 | 259 | 0.0 | 6.0 | 0.00 | 0.00 | 0.00 | 78 | 1013.9 |
| 20260902104549 | 0 | 0 | 0.0 | 0.0 | 0.00 | 0.00 | 0.00 | 100 | |
| 20260902103032 | 58 | 265 | 0.0 | 4.0 | 0.00 | 0.00 | 0.00 | 80 | 1014.1 |
| 20260902101530 | 58 | 267 | 0.0 | 4.0 | 0.00 | 0.00 | 0.00 | 80 | 1014.2 |
| 20260902100032 | 58 | 266 | 0.0 | 4.0 | 0.00 | 0.00 | 0.00 | 80 | 1014.3 |
| 20260902094603 | 58 | 272 | 0.0 | 5.0 | 0.00 | 0.00 | 0.00 | 80 | 1014.4 |
| 20260902093031 | 58 | 261 | 0.0 | 8.0 | 0.00 | 0.00 | 0.00 | 81 | 1014.5 |
| 20260902090031 | 57 | 270 | 0.0 | 4.0 | 0.00 | 0.00 | 0.00 | 81 | 1014.5 |
| 20260902084530 | 57 | 265 | 0.0 | 4.0 | 0.00 | 0.00 | 0.00 | 81 | 1014.5 |
| 20260902083034 | 58 | 277 | 0.0 | 3.0 | 0.00 | 0.00 | 0.00 | 81 | 1014.6 |
| 20260902081530 | 58 | 278 | 0.0 | 3.0 | 0.00 | 0.00 | 0.00 | 81 | 1014.5 |
| 20260902080027 | 57 | 269 | 0.0 | 4.0 | 0.00 | 0.00 | 0.00 | 81 | 1014.7 |
| 20260902074529 | 58 | 261 | 0.0 | 4.0 | 0.00 | 0.00 | 0.00 | 80 | 1014.7 |
| 20260902073030 | 58 | 263 | 0.0 | 5.0 | 0.00 | 0.00 | 0.00 | 79 | 1014.8 |
| 20260902071532 | 59 | 270 | 0.0 | 4.0 | 0.00 | 0.00 | 0.00 | 78 | 1015.0 |
| 20260902070107 | 59 | 265 | 0.0 | 3.0 | 0.00 | 0.00 | 0.00 | 76 | 1015.2 |
| 20260902064531 | 60 | 270 | 0.0 | 5.0 | 0.00 | 0.00 | 0.00 | 76 | 1015.4 |
| 20260902063030 | 60 | 271 | 0.0 | 6.0 | 0.00 | 0.00 | 0.00 | 76 | 1015.4 |
| 20260902061530 | 60 | 269 | 0.0 | 6.0 | 0.00 | 0.00 | 0.00 | 75 | 1015.5 |
| 20260902054530 | 61 | 272 | 0.0 | 7.0 | 0.00 | 0.00 | 0.00 | 74 | 1015.6 |
| 20260902053030 | 61 | 267 | 0.0 | 7.0 | 0.00 | 0.00 | 0.00 | 73 | 1015.4 |
| 20260902051531 | 61 | 262 | 1.0 | 6.0 | 0.00 | 0.00 | 0.00 | 73 | 1015.3 |
| 20260902044530 | 61 | 267 | 1.0 | 7.0 | 0.00 | 0.00 | 0.00 | 71 | 1015.0 |
| 20260902043030 | 61 | 263 | 1.0 | 7.0 | 0.00 | 0.00 | 0.00 | 71 | 1014.9 |
| 20260902041602 | 61 | 256 | 1.0 | 6.0 | 0.00 | 0.00 | 0.00 | 70 | 1014.8 |
| 20260902040104 | 62 | 257 | 1.0 | 10.0 | 0.00 | 0.00 | 0.00 | 70 | 1014.7 |
| 20260902034531 | 62 | 259 | 1.0 | 6.0 | 0.00 | 0.00 | 0.00 | 70 | 1014.4 |
| 20260902033030 | 62 | 246 | 1.0 | 6.0 | 0.00 | 0.00 | 0.00 | 70 | 1014.4 |
| 20260902030030 | 62 | 258 | 1.0 | 8.0 | 0.00 | 0.00 | 0.00 | 71 | 1014.5 |
| 20260902023105 | 62 | 265 | 1.0 | 5.0 | 0.00 | 0.00 | 0.00 | 70 | 1014.2 |
| 20260902021531 | 63 | 258 | 1.0 | 7.0 | 0.00 | 0.00 | 0.00 | 69 | 1014.2 |
| 20260902020031 | 63 | 262 | 1.0 | 8.0 | 0.00 | 0.00 | 0.00 | 68 | 1014.2 |
| 20260902014532 | 63 | 266 | 0.0 | 9.0 | 0.00 | 0.00 | 0.00 | 67 | 1014.3 |
| 20260902013031 | 64 | 257 | 1.0 | 7.0 | 0.00 | 0.00 | 0.00 | 66 | 1014.1 |
| 20260902011603 | 64 | 264 | 0.0 | 6.0 | 0.00 | 0.00 | 0.00 | 66 | 1014.0 |
| 20260902010105 | 65 | 266 | 1.0 | 6.0 | 0.00 | 0.00 | 0.00 | 64 | 1013.9 |
| 20260902003030 | 65 | 269 | 1.0 | 7.0 | 0.00 | 0.00 | 0.00 | 63 | 1013.5 |
| 20260902001533 | 66 | 270 | 1.0 | 9.0 | 0.00 | 0.00 | 0.00 | 64 | 1013.5 |
| 20260902000032 | 65 | 279 | 1.0 | 8.0 | 0.00 | 0.00 | 0.00 | 65 | 1013.7 |
| 20260901234531 | 65 | 271 | 1.0 | 8.0 | 0.00 | 0.00 | 0.00 | 65 | 1013.7 |
| 20260901233033 | 66 | 272 | 1.0 | 8.0 | 0.00 | 0.00 | 0.00 | 65 | 1013.6 |
| 20260901231532 | 66 | 287 | 1.0 | 8.0 | 0.00 | 0.00 | 0.00 | 63 | 1013.6 |
| 20260901230031 | 67 | 270 | 1.0 | 7.0 | 0.00 | 0.00 | 0.00 | 62 | 1013.6 |
| 20260901224533 | 67 | 268 | 1.0 | 8.0 | 0.00 | 0.00 | 0.00 | 63 | 1013.5 |
| 20260901223030 | 68 | 275 | 1.0 | 9.0 | 0.00 | 0.00 | 0.00 | 62 | 1013.2 |